﻿_id,日時,平均風速(m/s),平均風向,最大瞬間風速(m/s),最大風速時風向,気温(℃),湿度(%),10分間移動積算雨量(mm),1時間移動積算雨量(mm),日雨量(mm),累計雨量(mm)
1,2024-03-25T00:00:00,1.6,北,3.9,北北東,10.3,100,0,0,0,0
2,2024-03-25T00:01:00,1.7,北,3.9,北北東,10.3,100,0,0,0,0
3,2024-03-25T00:02:00,1.6,北,3.9,北北東,10.3,100,0,0,0,0
4,2024-03-25T00:03:00,1.7,北,3.9,北北東,10.3,100,0,0,0,0
5,2024-03-25T00:04:00,1.8,北,3.9,北北東,10.3,100,0,0,0,0
6,2024-03-25T00:05:00,1.8,北,3.9,北北東,10.2,100,0,0,0,0
7,2024-03-25T00:06:00,1.8,北北東,3.9,北北東,10.2,100,0,0,0,0
8,2024-03-25T00:07:00,1.9,北北東,3.9,北北東,10.2,100,0,0,0,0
9,2024-03-25T00:08:00,1.9,北北東,3.9,北北東,10.2,100,0,0,0,0
10,2024-03-25T00:09:00,1.8,北北東,3.3,北北東,10.2,100,0,0,0,0
11,2024-03-25T00:10:00,1.8,北北東,3.3,北北東,10.2,100,0,0,0,0
12,2024-03-25T00:11:00,1.8,北北東,3.3,北北東,10.2,100,0,0,0,0
13,2024-03-25T00:12:00,1.8,北北東,3.3,北北東,10.2,100,0,0,0,0
14,2024-03-25T00:13:00,1.7,北北東,3.3,北北東,10.2,100,0,0,0,0
15,2024-03-25T00:14:00,1.5,北北東,3.2,北北東,10.2,100,0,0,0,0
16,2024-03-25T00:15:00,1.4,北北東,3,北北東,10.2,100,0,0,0,0
17,2024-03-25T00:16:00,1.3,北北東,2.7,北北東,10.2,100,0,0,0,0
18,2024-03-25T00:17:00,1.4,北北東,2.5,北,10.2,100,0,0,0,0
19,2024-03-25T00:18:00,1.4,北北東,2.5,北,10.2,100,0,0,0,0
20,2024-03-25T00:19:00,1.4,北北東,2.5,北,10.2,100,0,0,0,0
21,2024-03-25T00:20:00,1.4,北北東,2.5,北,10.1,100,0,0,0,0
22,2024-03-25T00:21:00,1.4,北北東,2.5,北,10.1,100,0,0,0,0
23,2024-03-25T00:22:00,1.4,北北東,2.5,北,10.1,100,0,0,0,0
24,2024-03-25T00:23:00,1.5,北北東,2.5,北,10.1,100,0,0,0,0
25,2024-03-25T00:24:00,1.6,北北東,2.5,北,10.1,100,0,0,0,0
26,2024-03-25T00:25:00,1.6,北北東,2.5,北,10.1,100,0,0,0,0
27,2024-03-25T00:26:00,1.6,北北東,2.5,北,10.1,100,0,0,0,0
28,2024-03-25T00:27:00,1.6,北北東,2.4,北東,10.1,100,0,0,0,0
29,2024-03-25T00:28:00,1.5,北東,2.4,北東,10.1,100,0,0,0,0
30,2024-03-25T00:29:00,1.4,北東,2.4,北東,10.1,100,0,0,0,0
31,2024-03-25T00:30:00,1.4,北東,2.4,北東,10.1,100,0,0,0,0
32,2024-03-25T00:31:00,,"",,"",,,,,,
33,2024-03-25T00:32:00,1.3,北東,2.4,北東,10.1,100,0,0,0,0
34,2024-03-25T00:33:00,1.3,北東,2.3,北北東,10.1,100,0,0,0,0
35,2024-03-25T00:34:00,1.2,北東,1.9,北東,10.1,100,0,0,0,0
36,2024-03-25T00:35:00,1.1,北東,1.9,北東,10.1,100,0,0,0,0
37,2024-03-25T00:36:00,1.1,北東,1.8,北東,10.1,100,0,0,0,0
38,2024-03-25T00:37:00,1,北東,1.8,北東,10.1,100,0,0,0,0
39,2024-03-25T00:38:00,1,北東,1.8,北東,10.1,100,0,0,0,0
40,2024-03-25T00:39:00,1,北東,1.8,北東,10.1,100,0,0,0,0
41,2024-03-25T00:40:00,1,北東,1.8,北東,10.1,100,0,0,0,0
42,2024-03-25T00:41:00,0.9,北北東,1.8,北東,10.1,100,0,0,0,0
43,2024-03-25T00:42:00,0.8,北北東,1.8,北東,10.1,100,0,0,0,0
44,2024-03-25T00:43:00,0.8,北北東,1.5,北北東,10.1,100,0,0,0,0
45,2024-03-25T00:44:00,0.7,北北東,1.5,北北東,10.1,100,0,0,0,0
46,2024-03-25T00:45:00,0.7,北北東,1.5,北北東,10.1,100,0,0,0,0
47,2024-03-25T00:46:00,0.7,北北東,1.5,北北東,10.1,100,0,0,0,0
48,2024-03-25T00:47:00,0.7,北北東,1.2,北北東,10.1,100,0,0,0,0
49,2024-03-25T00:48:00,0.7,北北東,1.5,北北東,10.1,100,0,0,0,0
50,2024-03-25T00:49:00,0.7,北北東,1.5,北北東,10.1,100,0,0,0,0
51,2024-03-25T00:50:00,0.7,北北東,1.5,北北東,10.1,100,0,0,0,0
52,2024-03-25T00:51:00,0.7,北北東,1.5,北北東,10.1,100,0,0,0,0
53,2024-03-25T00:52:00,0.7,北北東,1.5,北北東,10.1,100,0,0,0,0
54,2024-03-25T00:53:00,0.7,北北東,1.5,北北東,10.1,100,0,0,0,0
55,2024-03-25T00:54:00,0.7,北北東,1.5,北北東,10.1,100,0,0,0,0
56,2024-03-25T00:55:00,0.6,北北東,1.5,北北東,10.1,100,0,0,0,0
57,2024-03-25T00:56:00,0.6,北,1.5,北北東,10.1,100,0,0,0,0
58,2024-03-25T00:57:00,0.5,北,1.5,北北東,10,100,0,0,0,0
59,2024-03-25T00:58:00,0.5,北北西,1.3,北,10,100,0,0,0,0
60,2024-03-25T00:59:00,0.4,北北西,1.2,北北東,10,100,0,0,0,0
61,2024-03-25T01:00:00,0.4,北北西,0.8,北,10,100,0,0,0,0
62,2024-03-25T01:01:00,0.4,北北西,0.8,北,10,100,0,0,0,0
63,2024-03-25T01:02:00,0.4,北北西,1.2,北北東,10,100,0,0,0,0
64,2024-03-25T01:03:00,0.5,北北西,1.8,北東,10,100,0,0,0,0
65,2024-03-25T01:04:00,0.6,北北西,2.9,北北東,10,100,0,0,0,0
66,2024-03-25T01:05:00,0.8,北,2.9,北北東,10,100,0,0,0,0
67,2024-03-25T01:06:00,0.9,北,2.9,北北東,10,100,0,0,0,0
68,2024-03-25T01:07:00,1,北,2.9,北北東,10.1,100,0,0,0,0
69,2024-03-25T01:08:00,1.2,北北東,2.9,北北東,10,100,0,0,0,0
70,2024-03-25T01:09:00,1.3,北北東,2.9,北北東,10.1,100,0,0,0,0
71,2024-03-25T01:10:00,1.3,北北東,2.9,北北東,10.1,100,0,0,0,0
72,2024-03-25T01:11:00,1.3,北北東,2.9,北北東,10,100,0,0,0,0
73,2024-03-25T01:12:00,1.3,北北東,2.9,北北東,10,100,0,0,0,0
74,2024-03-25T01:13:00,1.3,北北東,2.9,北北東,10,100,0,0,0,0
75,2024-03-25T01:14:00,1.2,北北東,2.8,北北東,10,100,0,0,0,0
76,2024-03-25T01:15:00,1.1,北,2.8,北北東,10,100,0,0,0,0
77,2024-03-25T01:16:00,1.1,北,2.8,北北東,10,100,0,0,0,0
78,2024-03-25T01:17:00,1,北,2.8,北北東,10,100,0,0,0,0
79,2024-03-25T01:18:00,0.9,北,1.9,北東,10,100,0,0,0,0
80,2024-03-25T01:19:00,1,北,3,北北東,10,100,0,0,0,0
81,2024-03-25T01:20:00,1.1,北北東,3,北北東,10,100,0,0,0,0
82,2024-03-25T01:21:00,1.2,北北東,3,北北東,10,100,0,0,0,0
83,2024-03-25T01:22:00,1.2,北,3,北北東,10,100,0,0,0,0
84,2024-03-25T01:23:00,1.2,北,3,北北東,10,100,0,0,0,0
85,2024-03-25T01:24:00,1.2,北,3,北北東,10,100,0,0,0,0
86,2024-03-25T01:25:00,1.2,北,3,北北東,10,100,0,0,0,0
87,2024-03-25T01:26:00,1.1,北,3,北北東,10,100,0,0,0,0
88,2024-03-25T01:27:00,1.1,北,3,北北東,10,100,0,0,0,0
89,2024-03-25T01:28:00,1.1,北,3,北北東,10,100,0,0,0,0
90,2024-03-25T01:29:00,1,北,2,北北東,10,100,0,0,0,0
91,2024-03-25T01:30:00,0.9,北,1.9,北北東,10,100,0,0,0,0
92,2024-03-25T01:31:00,0.9,北,1.9,北北東,10,100,0,0,0,0
93,2024-03-25T01:32:00,0.8,北,1.9,北北東,10,100,0,0,0,0
94,2024-03-25T01:33:00,0.8,北北東,1.9,北北東,9.9,100,0.5,0.5,0.5,0.5
95,2024-03-25T01:34:00,0.7,北北東,1.9,北北東,9.9,100,0.5,0.5,0.5,0.5
96,2024-03-25T01:35:00,0.7,北,1.9,北北東,9.9,100,0.5,0.5,0.5,0.5
97,2024-03-25T01:36:00,0.6,北,1.7,北東,9.8,100,0.5,0.5,0.5,0.5
98,2024-03-25T01:37:00,0.6,北,1.7,北東,9.9,100,0.5,0.5,0.5,0.5
99,2024-03-25T01:38:00,0.7,北,1.9,北,9.9,100,0.5,0.5,0.5,0.5
100,2024-03-25T01:39:00,0.6,北,1.9,北,9.9,100,0.5,0.5,0.5,0.5
101,2024-03-25T01:40:00,0.7,北,2.8,北西,9.9,100,0.5,0.5,0.5,0.5
102,2024-03-25T01:41:00,0.7,北北西,2.8,北西,9.9,100,0.5,0.5,0.5,0.5
103,2024-03-25T01:42:00,0.8,北北西,2.8,北西,9.9,100,0.5,0.5,0.5,0.5
104,2024-03-25T01:43:00,0.8,北北西,2.8,北西,9.9,100,0,0.5,0.5,0.5
105,2024-03-25T01:44:00,0.9,北北西,2.8,北西,9.9,100,0,0.5,0.5,0.5
106,2024-03-25T01:45:00,1.1,北,2.8,北西,9.9,100,0,0.5,0.5,0.5
107,2024-03-25T01:46:00,1.1,北,2.8,北西,10,100,0,0.5,0.5,0.5
108,2024-03-25T01:47:00,1.2,北,2.8,北西,10,100,0,0.5,0.5,0.5
109,2024-03-25T01:48:00,1.2,北,2.8,北西,10,100,0,0.5,0.5,0.5
110,2024-03-25T01:49:00,1.3,北,2.9,北,9.9,100,0,0.5,0.5,0.5
111,2024-03-25T01:50:00,1.4,北,3.1,北北東,9.9,100,0,0.5,0.5,0.5
112,2024-03-25T01:51:00,1.3,北,3.1,北北東,9.9,100,0,0.5,0.5,0.5
113,2024-03-25T01:52:00,1.4,北,3.1,北北東,9.9,100,0,0.5,0.5,0.5
114,2024-03-25T01:53:00,1.4,北北東,3.1,北北東,9.9,100,0,0.5,0.5,0.5
115,2024-03-25T01:54:00,1.4,北北東,3.1,北北東,9.9,100,0,0.5,0.5,0.5
116,2024-03-25T01:55:00,1.3,北北東,3.1,北北東,9.9,100,0,0.5,0.5,0.5
117,2024-03-25T01:56:00,1.2,北北東,3.1,北北東,9.8,100,0,0.5,0.5,0.5
118,2024-03-25T01:57:00,1.2,北北東,3.1,北北東,9.8,100,0,0.5,0.5,0.5
119,2024-03-25T01:58:00,1.2,北北東,3.1,北北東,9.8,100,0,0.5,0.5,0.5
120,2024-03-25T01:59:00,1.1,北北東,3.1,北北東,9.8,100,0,0.5,0.5,0.5
121,2024-03-25T02:00:00,1.1,北北東,2.2,北北東,9.8,100,0,0.5,0.5,0.5
122,2024-03-25T02:01:00,1.1,北北東,2.2,北北東,9.8,100,0,0.5,0.5,0.5
123,2024-03-25T02:02:00,1.1,北北東,2.2,北北東,9.8,100,0,0.5,0.5,0.5
124,2024-03-25T02:03:00,1.1,北北東,1.7,北東,9.8,100,0,0.5,0.5,0.5
125,2024-03-25T02:04:00,1.1,北北東,1.7,北東,9.8,100,0,0.5,0.5,0.5
126,2024-03-25T02:05:00,1.1,北北東,1.7,北東,9.8,100,0,0.5,0.5,0.5
127,2024-03-25T02:06:00,1.1,北北東,1.7,北東,9.8,100,0,0.5,0.5,0.5
128,2024-03-25T02:07:00,1.1,北東,1.7,北東,9.8,100,0,0.5,0.5,0.5
129,2024-03-25T02:08:00,1,北北東,1.7,北東,9.8,100,0,0.5,0.5,0.5
130,2024-03-25T02:09:00,1,北北東,1.6,北北東,9.8,100,0,0.5,0.5,0.5
131,2024-03-25T02:10:00,0.9,北北東,1.6,北北東,9.8,100,0,0.5,0.5,0.5
132,2024-03-25T02:11:00,0.9,北北東,1.6,北北東,9.8,100,0,0.5,0.5,0.5
133,2024-03-25T02:12:00,0.8,北北東,1.3,北東,9.8,100,0,0.5,0.5,0.5
134,2024-03-25T02:13:00,0.8,北北東,1.3,北東,9.8,100,0,0.5,0.5,0.5
135,2024-03-25T02:14:00,0.8,北北東,1.3,北東,9.8,100,0,0.5,0.5,0.5
136,2024-03-25T02:15:00,0.9,北北東,2,北,9.8,100,0,0.5,0.5,0.5
137,2024-03-25T02:16:00,0.9,北北東,2,北,9.8,100,0,0.5,0.5,0.5
138,2024-03-25T02:17:00,1,北北東,2,北,9.8,100,0,0.5,0.5,0.5
139,2024-03-25T02:18:00,1,北北東,2,北,9.8,100,0,0.5,0.5,0.5
140,2024-03-25T02:19:00,1.1,北北東,2,北,9.8,100,0,0.5,0.5,0.5
141,2024-03-25T02:20:00,1.2,北北東,2,北,9.8,100,0,0.5,0.5,0.5
142,2024-03-25T02:21:00,1.2,北北東,2,北,9.8,100,0,0.5,0.5,0.5
143,2024-03-25T02:22:00,1.2,北北東,2,北,9.8,100,0,0.5,0.5,0.5
144,2024-03-25T02:23:00,1.3,北北東,2,北,9.8,100,0,0.5,0.5,0.5
145,2024-03-25T02:24:00,1.2,北北東,2,北,9.8,100,0,0.5,0.5,0.5
146,2024-03-25T02:25:00,1.1,北北東,2,北,9.8,100,0,0.5,0.5,0.5
147,2024-03-25T02:26:00,1.1,北北東,2,北,9.8,100,0,0.5,0.5,0.5
148,2024-03-25T02:27:00,1,北北東,1.6,北北東,9.8,100,0,0.5,0.5,0.5
149,2024-03-25T02:28:00,0.9,北北東,1.6,北北東,9.7,100,0,0.5,0.5,0.5
150,2024-03-25T02:29:00,0.8,北北東,1.6,北北東,9.8,100,0,0.5,0.5,0.5
151,2024-03-25T02:30:00,0.7,北北東,1.5,北北東,9.8,100,0,0.5,0.5,0.5
152,2024-03-25T02:31:00,0.7,北北東,1.3,北北東,9.7,100,0,0.5,0.5,0.5
153,2024-03-25T02:32:00,0.6,北北東,1.3,北北東,9.8,100,0,0.5,0.5,0.5
154,2024-03-25T02:33:00,0.6,北北東,1.2,北北東,9.7,100,0,0,0.5,0.5
155,2024-03-25T02:34:00,0.6,北北東,1.2,北北東,9.7,100,0,0,0.5,0.5
156,2024-03-25T02:35:00,0.5,北北東,1.1,北北東,9.7,100,0,0,0.5,0.5
157,2024-03-25T02:36:00,0.6,北北東,1.5,東北東,9.7,100,0,0,0.5,0.5
158,2024-03-25T02:37:00,0.6,北北東,1.5,東北東,9.8,100,0,0,0.5,0.5
159,2024-03-25T02:38:00,0.7,北北東,1.5,東北東,9.8,100,0,0,0.5,0.5
160,2024-03-25T02:39:00,0.8,北北東,1.6,北北東,9.8,100,0,0,0.5,0.5
161,2024-03-25T02:40:00,0.9,北北東,1.6,北北東,9.7,100,0,0,0.5,0.5
162,2024-03-25T02:41:00,0.9,北北東,1.6,北北東,9.8,100,0,0,0.5,0.5
163,2024-03-25T02:42:00,0.9,北北東,1.6,北北東,9.7,100,0,0,0.5,0.5
164,2024-03-25T02:43:00,0.9,北北東,1.6,北北東,9.8,100,0,0,0.5,0.5
165,2024-03-25T02:44:00,0.9,北北東,1.6,北北東,9.8,100,0,0,0.5,0.5
166,2024-03-25T02:45:00,0.9,北北東,1.6,北北東,9.7,100,0,0,0.5,0.5
167,2024-03-25T02:46:00,0.8,北北東,1.6,北北東,9.7,100,0,0,0.5,0.5
168,2024-03-25T02:47:00,0.7,北北東,1.6,北北東,9.7,100,0,0,0.5,0.5
169,2024-03-25T02:48:00,0.6,北北東,1.6,北北東,9.7,100,0,0,0.5,0.5
170,2024-03-25T02:49:00,0.6,北北東,1.5,北北東,9.7,100,0,0,0.5,0.5
171,2024-03-25T02:50:00,0.5,北北東,1.2,北北東,9.7,100,0,0,0.5,0.5
172,2024-03-25T02:51:00,0.5,北北東,1,東北東,9.7,100,0,0,0.5,0.5
173,2024-03-25T02:52:00,0.5,北北東,1,東北東,9.7,100,0,0,0.5,0.5
174,2024-03-25T02:53:00,0.5,北北東,1,東北東,9.7,100,0,0,0.5,0.5
175,2024-03-25T02:54:00,0.5,北北東,1,東北東,9.7,100,0,0,0.5,0.5
176,2024-03-25T02:55:00,0.5,北北東,1,東北東,9.7,100,0,0,0.5,0.5
177,2024-03-25T02:56:00,0.5,北北東,1,東北東,9.6,100,0,0,0.5,0.5
178,2024-03-25T02:57:00,0.5,北北東,1.2,北北東,9.6,100,0,0,0.5,0.5
179,2024-03-25T02:58:00,0.6,北北東,1.4,北北東,9.6,100,0,0,0.5,0.5
180,2024-03-25T02:59:00,0.7,北北東,1.5,北北東,9.6,100,0,0,0.5,0.5
181,2024-03-25T03:00:00,0.7,北北東,1.5,北北東,9.6,100,0,0,0.5,0.5
182,2024-03-25T03:01:00,0.8,北北東,1.5,北北東,9.6,100,0,0,0.5,0.5
183,2024-03-25T03:02:00,0.9,北北東,1.5,北北東,9.6,100,0,0,0.5,0.5
184,2024-03-25T03:03:00,0.9,北北東,1.5,北北東,9.6,100,0,0,0.5,0.5
185,2024-03-25T03:04:00,0.9,北北東,1.5,北北東,9.6,100,0,0,0.5,0.5
186,2024-03-25T03:05:00,0.9,北北東,1.5,北北東,9.6,100,0,0,0.5,0.5
187,2024-03-25T03:06:00,0.9,北北東,1.5,北北東,9.6,100,0,0,0.5,0.5
188,2024-03-25T03:07:00,0.9,北北東,1.5,北北東,9.7,100,0,0,0.5,0.5
189,2024-03-25T03:08:00,0.8,北北東,1.5,北北東,9.6,100,0,0,0.5,0.5
190,2024-03-25T03:09:00,0.7,北北東,1.5,北北東,9.6,100,0,0,0.5,0.5
191,2024-03-25T03:10:00,0.7,北北東,1.5,北北東,9.6,100,0,0,0.5,0.5
192,2024-03-25T03:11:00,0.6,北北東,1.5,北北東,9.6,100,0,0,0.5,0.5
193,2024-03-25T03:12:00,0.7,北北東,1.8,北東,9.6,100,0,0,0.5,0.5
194,2024-03-25T03:13:00,0.7,北北東,1.8,北東,9.6,100,0,0,0.5,0.5
195,2024-03-25T03:14:00,0.7,北北東,1.8,北東,9.7,100,0,0,0.5,0.5
196,2024-03-25T03:15:00,0.8,北北東,1.8,北東,9.7,100,0,0,0.5,0.5
197,2024-03-25T03:16:00,0.9,北北東,1.8,北東,9.7,100,0,0,0.5,0.5
198,2024-03-25T03:17:00,1.1,北北東,1.8,北東,9.7,100,0,0,0.5,0.5
199,2024-03-25T03:18:00,1.2,北東,1.8,北東,9.6,100,0,0,0.5,0.5
200,2024-03-25T03:19:00,1.3,北東,1.8,北東,9.6,100,0,0,0.5,0.5
201,2024-03-25T03:20:00,1.4,北東,1.8,北東,9.6,100,0,0,0.5,0.5
202,2024-03-25T03:21:00,1.4,北東,1.9,北東,9.6,100,0,0,0.5,0.5
203,2024-03-25T03:22:00,1.4,北東,1.9,北東,9.6,100,0,0,0.5,0.5
204,2024-03-25T03:23:00,1.4,北東,1.9,北東,9.6,100,0,0,0.5,0.5
205,2024-03-25T03:24:00,1.4,北東,1.9,北東,9.6,100,0,0,0.5,0.5
206,2024-03-25T03:25:00,1.4,北東,1.9,北東,9.6,100,0,0,0.5,0.5
207,2024-03-25T03:26:00,1.4,北東,1.9,北東,9.6,100,0,0,0.5,0.5
208,2024-03-25T03:27:00,1.3,北東,1.9,北東,9.6,100,0,0,0.5,0.5
209,2024-03-25T03:28:00,1.3,北東,1.9,北東,9.6,100,0,0,0.5,0.5
210,2024-03-25T03:29:00,1.2,北東,1.9,北東,9.6,100,0,0,0.5,0.5
211,2024-03-25T03:30:00,1.1,北東,1.9,北東,9.6,100,0,0,0.5,0.5
212,2024-03-25T03:31:00,1,北東,1.9,北東,9.6,100,0,0,0.5,0.5
213,2024-03-25T03:32:00,0.9,北東,1.6,北東,9.6,100,0,0,0.5,0.5
214,2024-03-25T03:33:00,0.9,北東,1.5,北東,9.6,100,0,0,0.5,0.5
215,2024-03-25T03:34:00,0.9,北東,1.3,北東,9.6,100,0,0,0.5,0.5
216,2024-03-25T03:35:00,0.8,北東,1.4,東,9.6,100,0,0,0.5,0.5
217,2024-03-25T03:36:00,0.8,北東,1.4,東,9.6,100,0,0,0.5,0.5
218,2024-03-25T03:37:00,0.8,北東,1.4,東,9.6,100,0,0,0.5,0.5
219,2024-03-25T03:38:00,0.9,北東,1.6,北東,9.6,100,0,0,0.5,0.5
220,2024-03-25T03:39:00,0.9,北東,1.6,北東,9.6,100,0,0,0.5,0.5
221,2024-03-25T03:40:00,0.9,北東,1.6,北東,9.5,100,0,0,0.5,0.5
222,2024-03-25T03:41:00,1,北東,1.6,北東,9.6,100,0,0,0.5,0.5
223,2024-03-25T03:42:00,1,北東,1.6,北東,9.6,100,0,0,0.5,0.5
224,2024-03-25T03:43:00,1,北東,1.6,北東,9.6,100,0,0,0.5,0.5
225,2024-03-25T03:44:00,1.1,北東,2.5,北東,9.6,100,0,0,0.5,0.5
226,2024-03-25T03:45:00,1.1,北東,2.5,北東,9.6,100,0,0,0.5,0.5
227,2024-03-25T03:46:00,1.1,北北東,2.5,北東,9.6,100,0,0,0.5,0.5
228,2024-03-25T03:47:00,1,北北東,2.5,北東,9.5,100,0,0,0.5,0.5
229,2024-03-25T03:48:00,1,北北東,2.5,北東,9.5,100,0,0,0.5,0.5
230,2024-03-25T03:49:00,0.9,北北東,2.5,北東,9.5,100,0,0,0.5,0.5
231,2024-03-25T03:50:00,0.9,北北東,2.5,北東,9.5,100,0,0,0.5,0.5
232,2024-03-25T03:51:00,0.9,北北東,2.5,北東,9.5,100,0,0,0.5,0.5
233,2024-03-25T03:52:00,0.9,北北東,2.5,北東,9.5,100,0,0,0.5,0.5
234,2024-03-25T03:53:00,0.9,北,2.5,北東,9.5,100,0,0,0.5,0.5
235,2024-03-25T03:54:00,0.8,北北東,1.8,北東,9.6,100,0,0,0.5,0.5
236,2024-03-25T03:55:00,0.7,北北東,1.8,北東,9.6,100,0,0,0.5,0.5
237,2024-03-25T03:56:00,0.7,北北東,1.8,北東,9.5,100,0,0,0.5,0.5
238,2024-03-25T03:57:00,0.7,北北東,1.8,北東,9.5,100,0,0,0.5,0.5
239,2024-03-25T03:58:00,0.8,北北東,1.8,北東,9.5,100,0,0,0.5,0.5
240,2024-03-25T03:59:00,0.8,北北東,1.8,北東,9.5,100,0.5,0.5,1,1
241,2024-03-25T04:00:00,0.8,北北東,1.8,北東,9.5,100,0.5,0.5,1,1
242,2024-03-25T04:01:00,0.7,北北東,1.8,北東,9.5,100,0.5,0.5,1,1
243,2024-03-25T04:02:00,0.8,北北東,2.1,北東,9.5,100,0.5,0.5,1,1
244,2024-03-25T04:03:00,0.8,北北東,2.1,北東,9.5,100,0.5,0.5,1,1
245,2024-03-25T04:04:00,0.9,北北東,2.1,北東,9.5,100,0.5,0.5,1,1
246,2024-03-25T04:05:00,0.9,北北東,2.1,北東,9.5,100,0.5,0.5,1,1
247,2024-03-25T04:06:00,1,北北東,2.1,北東,9.5,100,0.5,0.5,1,1
248,2024-03-25T04:07:00,1,北北東,2.1,北東,9.5,100,0.5,0.5,1,1
249,2024-03-25T04:08:00,1,北北東,2.1,北東,9.5,100,0.5,0.5,1,1
250,2024-03-25T04:09:00,1,北北東,2.1,北東,9.5,100,0,0.5,1,1
251,2024-03-25T04:10:00,1.1,北北東,2.4,北北東,9.5,100,0,0.5,1,1
252,2024-03-25T04:11:00,1.2,北北東,2.4,北北東,9.5,100,0,0.5,1,1
253,2024-03-25T04:12:00,1.2,北北東,2.4,北北東,9.5,100,0,0.5,1,1
254,2024-03-25T04:13:00,1.3,北北東,2.8,北北東,9.5,100,0,0.5,1,1
255,2024-03-25T04:14:00,1.2,北北東,2.8,北北東,9.5,100,0,0.5,1,1
256,2024-03-25T04:15:00,1.2,北北東,2.8,北北東,9.5,100,0,0.5,1,1
257,2024-03-25T04:16:00,1.2,北北東,2.8,北北東,9.5,100,0,0.5,1,1
258,2024-03-25T04:17:00,1.3,北北東,2.8,北北東,9.5,100,0,0.5,1,1
259,2024-03-25T04:18:00,1.3,北北東,2.8,北北東,9.5,100,0,0.5,1,1
260,2024-03-25T04:19:00,1.3,北北東,2.8,北北東,9.5,100,0,0.5,1,1
261,2024-03-25T04:20:00,1.2,北北東,2.8,北北東,9.5,100,0,0.5,1,1
262,2024-03-25T04:21:00,1.2,北北東,2.8,北北東,9.5,100,0,0.5,1,1
263,2024-03-25T04:22:00,1.1,北北東,2.8,北北東,9.5,100,0,0.5,1,1
264,2024-03-25T04:23:00,1,北北東,1.7,北東,9.5,100,0,0.5,1,1
265,2024-03-25T04:24:00,1,北東,1.7,北東,9.5,100,0,0.5,1,1
266,2024-03-25T04:25:00,1,北東,1.7,北東,9.5,100,0,0.5,1,1
267,2024-03-25T04:26:00,1.1,北北東,1.9,北東,9.5,100,0,0.5,1,1
268,2024-03-25T04:27:00,1.1,北北東,1.9,北東,9.5,100,0,0.5,1,1
269,2024-03-25T04:28:00,1.1,北東,2.2,北北東,9.5,100,0,0.5,1,1
270,2024-03-25T04:29:00,1.2,北北東,2.2,北北東,9.5,100,0,0.5,1,1
271,2024-03-25T04:30:00,1.2,北北東,2.2,北北東,9.5,100,0,0.5,1,1
272,2024-03-25T04:31:00,1.3,北北東,2.2,北北東,9.5,100,0,0.5,1,1
273,2024-03-25T04:32:00,1.3,北北東,2.2,北北東,9.5,100,0,0.5,1,1
274,2024-03-25T04:33:00,1.3,北北東,2.2,北北東,9.5,100,0,0.5,1,1
275,2024-03-25T04:34:00,1.4,北東,2.2,北北東,9.5,100,0,0.5,1,1
276,2024-03-25T04:35:00,1.4,北東,2.2,北北東,9.5,100,0,0.5,1,1
277,2024-03-25T04:36:00,1.4,北東,2.2,北北東,9.5,100,0,0.5,1,1
278,2024-03-25T04:37:00,1.4,北東,2.2,北北東,9.5,100,0,0.5,1,1
279,2024-03-25T04:38:00,1.3,北東,2,北北東,9.5,100,0,0.5,1,1
280,2024-03-25T04:39:00,1.3,北東,1.8,北東,9.5,100,0,0.5,1,1
281,2024-03-25T04:40:00,1.2,北東,1.8,北東,9.5,100,0,0.5,1,1
282,2024-03-25T04:41:00,1.2,北東,1.8,北東,9.5,100,0,0.5,1,1
283,2024-03-25T04:42:00,1.2,北東,1.8,北東,9.5,100,0,0.5,1,1
284,2024-03-25T04:43:00,1.1,北東,1.8,北東,9.5,100,0,0.5,1,1
285,2024-03-25T04:44:00,1.1,北東,1.8,北東,9.5,100,0,0.5,1,1
286,2024-03-25T04:45:00,1.1,北東,1.8,北東,9.5,100,0,0.5,1,1
287,2024-03-25T04:46:00,1.1,北東,1.9,北東,9.5,100,0,0.5,1,1
288,2024-03-25T04:47:00,1.1,北東,1.9,北東,9.5,100,0.5,1,1.5,1.5
289,2024-03-25T04:48:00,1.2,北北東,1.9,北東,9.5,100,0.5,1,1.5,1.5
290,2024-03-25T04:49:00,1.3,北東,2.2,北東,9.4,100,0.5,1,1.5,1.5
291,2024-03-25T04:50:00,1.3,北東,2.2,北東,9.5,100,0.5,1,1.5,1.5
292,2024-03-25T04:51:00,1.3,北東,2.2,北東,9.4,100,0.5,1,1.5,1.5
293,2024-03-25T04:52:00,1.4,北東,2.2,北東,9.4,100,0.5,1,1.5,1.5
294,2024-03-25T04:53:00,1.4,北東,2.2,北東,9.4,100,0.5,1,1.5,1.5
295,2024-03-25T04:54:00,1.4,北東,2.2,北東,9.4,100,0.5,1,1.5,1.5
296,2024-03-25T04:55:00,1.4,北東,2.2,北東,9.4,100,0.5,1,1.5,1.5
297,2024-03-25T04:56:00,1.5,北東,2.2,北東,9.4,100,0.5,1,1.5,1.5
298,2024-03-25T04:57:00,1.5,北東,2.2,北東,9.4,100,0,1,1.5,1.5
299,2024-03-25T04:58:00,1.5,北東,2.2,北東,9.4,100,0,1,1.5,1.5
300,2024-03-25T04:59:00,1.4,北東,2.2,北東,9.4,100,0,0.5,1.5,1.5
301,2024-03-25T05:00:00,1.4,北東,2.2,北東,9.4,100,0,0.5,1.5,1.5
302,2024-03-25T05:01:00,1.4,北北東,2.2,北東,9.4,100,0,0.5,1.5,1.5
303,2024-03-25T05:02:00,1.4,北北東,2.2,北東,9.4,100,0,0.5,1.5,1.5
304,2024-03-25T05:03:00,1.3,北北東,2.2,北東,9.4,100,0,0.5,1.5,1.5
305,2024-03-25T05:04:00,1.3,北北東,2.2,北東,9.4,100,0,0.5,1.5,1.5
306,2024-03-25T05:05:00,1.3,北北東,2.2,北東,9.4,100,0,0.5,1.5,1.5
307,2024-03-25T05:06:00,1.3,北北東,1.9,北東,9.4,100,0,0.5,1.5,1.5
308,2024-03-25T05:07:00,1.3,北北東,1.8,北北東,9.4,100,0,0.5,1.5,1.5
309,2024-03-25T05:08:00,1.3,北北東,1.8,北北東,9.4,100,0,0.5,1.5,1.5
310,2024-03-25T05:09:00,1.3,北北東,1.8,北北東,9.4,100,0,0.5,1.5,1.5
311,2024-03-25T05:10:00,1.3,北北東,1.8,北北東,9.4,100,0,0.5,1.5,1.5
312,2024-03-25T05:11:00,1.3,北北東,1.8,北北東,9.4,100,0,0.5,1.5,1.5
313,2024-03-25T05:12:00,1.2,北北東,1.8,北北東,9.4,100,0,0.5,1.5,1.5
314,2024-03-25T05:13:00,1.3,北北東,1.8,北北東,9.3,100,0,0.5,1.5,1.5
315,2024-03-25T05:14:00,1.3,北北東,2.4,北東,9.4,100,0,0.5,1.5,1.5
316,2024-03-25T05:15:00,1.3,北北東,2.4,北東,9.3,100,0,0.5,1.5,1.5
317,2024-03-25T05:16:00,1.2,北北東,2.4,北東,9.4,100,0,0.5,1.5,1.5
318,2024-03-25T05:17:00,1.1,北北東,2.4,北東,9.4,100,0,0.5,1.5,1.5
319,2024-03-25T05:18:00,1.1,北北東,2.4,北東,9.4,100,0.5,1,2,2
320,2024-03-25T05:19:00,1.1,北北東,2.4,北東,9.4,100,0.5,1,2,2
321,2024-03-25T05:20:00,1.2,北北東,2.4,北東,9.3,100,0.5,1,2,2
322,2024-03-25T05:21:00,1.2,北北東,2.4,北東,9.4,100,0.5,1,2,2
323,2024-03-25T05:22:00,1.3,北北東,2.4,北東,9.3,100,0.5,1,2,2
324,2024-03-25T05:23:00,1.3,北北東,2.4,北東,9.4,100,0.5,1,2,2
325,2024-03-25T05:24:00,1.3,北北東,2.2,北北東,9.3,100,0.5,1,2,2
326,2024-03-25T05:25:00,1.3,北北東,2.2,北北東,9.3,100,0.5,1,2,2
327,2024-03-25T05:26:00,1.3,北北東,2.2,北北東,9.3,100,0.5,1,2,2
328,2024-03-25T05:27:00,1.3,北北東,2.2,北北東,9.3,100,0.5,1,2,2
329,2024-03-25T05:28:00,1.2,北北東,2.2,北北東,9.3,100,0,1,2,2
330,2024-03-25T05:29:00,1.1,北北東,2.1,北東,9.3,100,0,1,2,2
331,2024-03-25T05:30:00,1.1,北北東,2.1,北東,9.3,100,0,1,2,2
332,2024-03-25T05:31:00,1,北北東,2.1,北東,9.3,100,0,1,2,2
333,2024-03-25T05:32:00,1,北北東,2,北東,9.3,100,0,1,2,2
334,2024-03-25T05:33:00,1,北北東,2,北東,9.3,100,0,1,2,2
335,2024-03-25T05:34:00,1,北北東,2,北東,9.3,100,0,1,2,2
336,2024-03-25T05:35:00,1,北北東,1.7,北北東,9.3,100,0,1,2,2
337,2024-03-25T05:36:00,0.9,北北東,1.7,北北東,9.3,100,0,1,2,2
338,2024-03-25T05:37:00,1,北北東,1.7,北北東,9.3,100,0,1,2,2
339,2024-03-25T05:38:00,1,北北東,1.7,北北東,9.3,100,0,1,2,2
340,2024-03-25T05:39:00,1.1,北北東,1.7,北北東,9.4,100,0,1,2,2
341,2024-03-25T05:40:00,1.1,北北東,1.7,北北東,9.3,100,0,1,2,2
342,2024-03-25T05:41:00,1.1,北北東,1.7,北北東,9.4,100,0,1,2,2
343,2024-03-25T05:42:00,1.1,北北東,1.7,北北東,9.4,100,0,1,2,2
344,2024-03-25T05:43:00,1.1,北北東,1.8,北東,9.4,100,0,1,2,2
345,2024-03-25T05:44:00,1.1,北北東,1.8,北東,9.3,100,0,1,2,2
346,2024-03-25T05:45:00,1.2,北北東,1.8,北東,9.3,100,0,1,2,2
347,2024-03-25T05:46:00,1.2,北北東,1.8,北東,9.3,100,0,1,2,2
348,2024-03-25T05:47:00,1.3,北北東,1.8,北東,9.3,100,0,0.5,2,2
349,2024-03-25T05:48:00,1.3,北北東,1.8,北東,9.3,100,0,0.5,2,2
350,2024-03-25T05:49:00,1.3,北北東,1.8,北東,9.3,100,0,0.5,2,2
351,2024-03-25T05:50:00,1.2,北北東,1.8,北東,9.3,100,0,0.5,2,2
352,2024-03-25T05:51:00,1.2,北北東,1.8,北東,9.3,100,0,0.5,2,2
353,2024-03-25T05:52:00,1.2,北北東,1.8,北東,9.3,100,0,0.5,2,2
354,2024-03-25T05:53:00,1.2,北北東,1.8,北北東,9.3,100,0,0.5,2,2
355,2024-03-25T05:54:00,1.1,北北東,1.8,北北東,9.3,100,0,0.5,2,2
356,2024-03-25T05:55:00,1.1,北北東,1.6,北東,9.3,100,0,0.5,2,2
357,2024-03-25T05:56:00,1,北北東,1.6,北東,9.3,100,0,0.5,2,2
358,2024-03-25T05:57:00,1,北北東,1.5,北東,9.3,100,0,0.5,2,2
359,2024-03-25T05:58:00,1,北北東,1.7,北北東,9.3,100,0,0.5,2,2
360,2024-03-25T05:59:00,1,北東,1.7,北北東,9.3,100,0,0.5,2,2
361,2024-03-25T06:00:00,1,北東,1.7,北北東,9.4,100,0,0.5,2,2
362,2024-03-25T06:01:00,1,北東,1.7,北北東,9.4,100,0,0.5,2,2
363,2024-03-25T06:02:00,1,北東,1.8,北北東,9.4,100,0,0.5,2,2
364,2024-03-25T06:03:00,1,北東,1.8,北北東,9.3,100,0,0.5,2,2
365,2024-03-25T06:04:00,1.1,北東,1.8,北北東,9.4,100,0,0.5,2,2
366,2024-03-25T06:05:00,1.1,北北東,1.8,北北東,9.4,100,0,0.5,2,2
367,2024-03-25T06:06:00,1.1,北北東,1.8,北北東,9.4,100,0,0.5,2,2
368,2024-03-25T06:07:00,1,北北東,1.8,北北東,9.3,100,0,0.5,2,2
369,2024-03-25T06:08:00,0.9,北北東,1.8,北北東,9.3,100,0,0.5,2,2
370,2024-03-25T06:09:00,0.9,北北東,1.8,北北東,9.3,100,0,0.5,2,2
371,2024-03-25T06:10:00,0.9,北北東,1.8,北北東,9.4,100,0,0.5,2,2
372,2024-03-25T06:11:00,0.9,北北東,1.8,北北東,9.3,100,0,0.5,2,2
373,2024-03-25T06:12:00,0.8,北北東,1.7,北北東,9.4,100,0,0.5,2,2
374,2024-03-25T06:13:00,0.8,北北東,1.5,北北東,9.3,100,0,0.5,2,2
375,2024-03-25T06:14:00,0.8,北北東,1.5,北北東,9.4,100,0,0.5,2,2
376,2024-03-25T06:15:00,0.8,北北東,1.6,北東,9.4,100,0,0.5,2,2
377,2024-03-25T06:16:00,0.8,北北東,1.6,北東,9.4,100,0,0.5,2,2
378,2024-03-25T06:17:00,0.9,北北東,1.8,北北東,9.4,100,0,0.5,2,2
379,2024-03-25T06:18:00,1,北北東,1.9,北東,9.4,100,0,0,2,2
380,2024-03-25T06:19:00,1.1,北北東,1.9,北東,9.4,100,0.5,0.5,2.5,2.5
381,2024-03-25T06:20:00,1.2,北東,1.9,北東,9.4,100,0.5,0.5,2.5,2.5
382,2024-03-25T06:21:00,1.2,北東,1.9,北東,9.4,100,0.5,0.5,2.5,2.5
383,2024-03-25T06:22:00,1.2,北東,1.9,北東,9.4,100,0.5,0.5,2.5,2.5
384,2024-03-25T06:23:00,1.2,北北東,1.9,北東,9.4,100,0.5,0.5,2.5,2.5
385,2024-03-25T06:24:00,1.2,北北東,1.9,北東,9.4,100,0.5,0.5,2.5,2.5
386,2024-03-25T06:25:00,1.2,北北東,1.9,北東,9.3,100,0.5,0.5,2.5,2.5
387,2024-03-25T06:26:00,1.1,北北東,1.9,北東,9.3,100,0.5,0.5,2.5,2.5
388,2024-03-25T06:27:00,1.1,北北東,1.9,北東,9.3,100,0.5,0.5,2.5,2.5
389,2024-03-25T06:28:00,1.1,北北東,1.8,北北東,9.4,100,0.5,0.5,2.5,2.5
390,2024-03-25T06:29:00,1.1,北北東,1.8,北北東,9.3,100,0,0.5,2.5,2.5
391,2024-03-25T06:30:00,1.1,北北東,1.8,北北東,9.3,100,0,0.5,2.5,2.5
392,2024-03-25T06:31:00,1.1,北北東,1.8,北北東,9.3,100,0,0.5,2.5,2.5
393,2024-03-25T06:32:00,1.2,北北東,1.8,北北東,9.3,100,0,0.5,2.5,2.5
394,2024-03-25T06:33:00,1.2,北北東,1.9,北東,9.4,100,0,0.5,2.5,2.5
395,2024-03-25T06:34:00,1.2,北北東,1.9,北東,9.4,100,0,0.5,2.5,2.5
396,2024-03-25T06:35:00,1.2,北北東,1.9,北東,9.4,100,0,0.5,2.5,2.5
397,2024-03-25T06:36:00,1.1,北北東,1.9,北東,9.4,100,0,0.5,2.5,2.5
398,2024-03-25T06:37:00,1.1,北北東,1.9,北東,9.4,100,0,0.5,2.5,2.5
399,2024-03-25T06:38:00,1.1,北北東,2.1,北東,9.4,100,0,0.5,2.5,2.5
400,2024-03-25T06:39:00,1.2,北北東,2.3,北北東,9.4,100,0,0.5,2.5,2.5
401,2024-03-25T06:40:00,1.1,北北東,2.3,北北東,9.4,100,0,0.5,2.5,2.5
402,2024-03-25T06:41:00,1.1,北北東,2.3,北北東,9.4,100,0,0.5,2.5,2.5
403,2024-03-25T06:42:00,1.1,北北東,2.3,北北東,9.4,100,0,0.5,2.5,2.5
404,2024-03-25T06:43:00,1.1,北北東,2.3,北北東,9.4,100,0,0.5,2.5,2.5
405,2024-03-25T06:44:00,1.1,北北東,2.3,北北東,9.4,100,0,0.5,2.5,2.5
406,2024-03-25T06:45:00,1.2,北北東,2.3,北北東,9.3,100,0,0.5,2.5,2.5
407,2024-03-25T06:46:00,1.2,北北東,2.3,北北東,9.4,100,0,0.5,2.5,2.5
408,2024-03-25T06:47:00,1.2,北北東,2.3,北北東,9.4,100,0,0.5,2.5,2.5
409,2024-03-25T06:48:00,1.1,北北東,2.3,北北東,9.4,100,0,0.5,2.5,2.5
410,2024-03-25T06:49:00,1,北北東,2,北東,9.4,100,0,0.5,2.5,2.5
411,2024-03-25T06:50:00,1,北北東,2,北東,9.4,100,0,0.5,2.5,2.5
412,2024-03-25T06:51:00,0.9,北北東,2,北東,9.4,100,0,0.5,2.5,2.5
413,2024-03-25T06:52:00,0.9,北北東,1.8,北北東,9.4,100,0,0.5,2.5,2.5
414,2024-03-25T06:53:00,0.9,北北東,1.8,北北東,9.4,100,0,0.5,2.5,2.5